Location: LDNL
(36.4545°S, 141.6685°E)
Time: 11:40:28
(UTC+10:00)

Tiros 1 despin weight - Pass Details

Date: 13 August 2022
Orbit: 590 x 639 km, 48.2° (Epoch: 23 September)

Event Time Altitude Azimuth Distance (km) Brightness Sun altitude
Rises 06:30:40 0° 236° (SW) 2,964 - -10.2°
Reaches altitude 10° 06:33:01 10° 237° (WSW) 2,051 - -9.8°
Exits shadow 06:33:09 11° 237° (WSW) 2,001 ? -9.7°
Maximum altitude 06:37:45 78° 322° (NW) 663 ? -8.8°
Drops below altitude 10° 06:42:26 10° 48° (NE) 2,025 ? -7.9°
Sets 06:44:44 0° 49° (NE) 2,923 ? -7.5°
